Last 24 Hours

Red Mountain

10 Minute Data | America/Los_Angeles
as of 5/2/26 11:14 AM PDT
Date & Time Temp (°F) Dew Pt (°F) RH (%) Wind Spd (mph) Wind Dir (°) Wind Gust (mph) Wind Gst Dir (°) Daily Max Temp (°F) Daily Min Temp (°F)
5/2/26 - 1110 67.4 40.4 37 11.9 SW | 233 18.8 SW | 220 71.6 62.2
5/2/26 - 1100 67.5 41.2 38 6.8 SW | 221 12.7 SW | 235 71.6 62.2
5/2/26 - 1050 66.3 41.7 41 7.8 SW | 219 11.3 SW | 220 71.6 62.2
5/2/26 - 1040 67.4 42.0 40 7.4 SW | 219 13.2 WSW | 245 71.6 62.2
5/2/26 - 1030 66.1 41.2 40 4.9 SW | 235 12.0 SW | 225 71.6 62.2
5/2/26 - 1020 66.0 41.2 40 4.7 WSW | 244 9.5 SSW | 211 71.6 62.2
5/2/26 - 1010 65.9 42.3 42 5.5 WSW | 238 10.4 SW | 233 71.6 62.2
5/2/26 - 1000 70.2 29.0 22 10.4 SE | 142 17.1 SE | 132 71.6 62.2
5/2/26 - 0950 70.6 27.4 20 8.8 ESE | 122 15.9 SE | 144 71.6 62.2
5/2/26 - 0940 69.2 26.4 20 10.8 ESE | 119 17.0 E | 84 70.1 62.2
5/2/26 - 0930 69.0 26.9 21 11.4 E | 94 16.8 E | 82 69.8 62.2
5/2/26 - 0920 69.0 26.4 20 12.2 ESE | 109 19.1 ESE | 113 69.6 62.2
5/2/26 - 0910 68.8 26.0 20 13.1 ESE | 102 19.6 E | 99 69.3 62.2
5/2/26 - 0900 68.6 25.8 20 12.9 ESE | 112 19.4 SE | 138 69.3 62.2
5/2/26 - 0850 68.0 27.1 21 10.3 E | 97 14.3 ESE | 108 68.4 62.2
5/2/26 - 0840 67.5 27.0 22 11.4 E | 92 16.4 E | 79 68.3 62.2
5/2/26 - 0830 67.2 27.1 22 13.6 E | 97 18.8 E | 94 67.6 62.2
5/2/26 - 0820 66.6 27.5 23 13.9 E | 92 18.7 E | 91 66.9 62.2
5/2/26 - 0810 66.2 27.3 23 14.4 E | 91 19.3 E | 95 66.6 62.2
5/2/26 - 0800 65.7 27.5 24 12.8 E | 85 17.7 E | 86 66.0 62.2
5/2/26 - 0750 65.2 28.0 24 11.9 ENE | 78 16.2 E | 79 65.4 62.2
5/2/26 - 0740 64.9 27.2 24 11.8 ENE | 78 14.2 E | 80 65.2 62.2
5/2/26 - 0730 64.8 27.1 24 10.9 ENE | 78 13.4 ENE | 77 64.9 62.2
5/2/26 - 0720 64.8 26.8 24 8.8 E | 83 11.8 ENE | 77 64.9 62.2
5/2/26 - 0710 64.6 27.3 24 7.6 E | 84 10.6 E | 88 64.9 62.2
5/2/26 - 0700 64.7 27.2 24 8.1 E | 97 11.1 E | 100 64.9 62.2
5/2/26 - 0650 64.7 26.6 23 9.7 E | 96 13.8 E | 95 64.9 62.2
5/2/26 - 0640 64.4 26.1 23 10.6 ESE | 102 13.2 E | 94 64.6 62.2
5/2/26 - 0630 64.0 26.4 24 8.7 ESE | 113 10.4 ESE | 109 64.6 62.2
5/2/26 - 0620 64.4 26.6 24 8.0 SE | 129 9.0 SE | 134 64.6 62.2
5/2/26 - 0610 64.4 26.9 24 8.1 SE | 126 9.6 SE | 132 64.4 62.2
5/2/26 - 0600 64.3 27.3 24 6.9 ESE | 116 8.3 ESE | 120 64.4 62.2
5/2/26 - 0550 63.6 27.7 26 5.2 E | 100 7.5 ESE | 107 64.4 62.2
5/2/26 - 0540 63.0 27.7 26 4.3 ENE | 72 5.3 ENE | 76 64.4 62.2
5/2/26 - 0530 63.2 27.0 25 3.8 NE | 51 4.8 ENE | 58 64.4 62.2
5/2/26 - 0520 63.4 26.9 25 3.2 NE | 45 4.0 NE | 39 64.4 62.2
5/2/26 - 0510 63.6 25.0 23 2.2 NNE | 20 3.7 N | 5 64.4 62.2
5/2/26 - 0500 63.5 24.6 23 3.5 NNW | 348 4.2 NNW | 328 64.4 62.2
5/2/26 - 0450 64.0 25.1 23 3.3 NNW | 345 3.9 NNW | 340 64.4 62.2
5/2/26 - 0440 62.8 24.2 23 3.7 NNW | 345 5.5 NNW | 332 64.4 62.2
5/2/26 - 0430 62.7 23.8 22 6.6 NNW | 336 7.7 NNW | 335 64.4 62.2
5/2/26 - 0420 63.3 25.6 24 7.4 N | 1 8.7 N | 0 64.4 62.4
5/2/26 - 0410 63.7 25.5 23 7.3 N | 7 8.2 N | 6 64.4 62.4
5/2/26 - 0400 62.9 25.2 24 7.2 N | 8 7.9 N | 11 64.4 62.4
5/2/26 - 0350 63.6 26.1 24 7.3 N | 2 8.9 N | 6 64.4 62.8
5/2/26 - 0340 63.8 25.4 23 8.2 N | 3 9.1 N | 5 64.4 62.8
5/2/26 - 0330 63.4 26.1 24 8.6 N | 4 9.1 N | 6 64.4 62.8
5/2/26 - 0320 63.4 26.0 24 8.8 N | 6 9.6 N | 7 64.4 62.8
5/2/26 - 0310 63.5 26.1 24 9.2 N | 9 9.9 N | 7 64.4 62.8
5/2/26 - 0300 63.7 25.9 24 9.7 N | 7 10.2 N | 7 64.4 62.8
5/2/26 - 0250 63.4 26.1 24 10.2 N | 7 11.1 N | 7 64.4 62.8
5/2/26 - 0240 63.0 26.7 25 10.5 N | 2 11.0 N | 5 64.4 62.8
5/2/26 - 0230 63.1 26.7 25 9.6 N | 352 11.2 N | 354 64.4 62.9
5/2/26 - 0220 63.4 26.1 24 8.1 NNW | 343 8.6 NNW | 346 64.4 63.3
5/2/26 - 0210 63.6 25.8 24 8.0 NNW | 342 8.6 NNW | 346 64.4 63.5
5/2/26 - 0200 63.6 25.9 24 8.2 N | 356 8.6 N | 2 64.4 63.6
5/2/26 - 0150 63.7 26.0 24 8.7 N | 359 9.4 N | 351 64.4 63.6
5/2/26 - 0140 63.9 25.7 23 8.8 N | 358 9.6 N | 354 64.4 63.7
5/2/26 - 0130 63.9 25.9 23 8.9 N | 358 9.6 N | 0 64.4 63.7
5/2/26 - 0120 63.8 26.3 24 8.6 N | 359 9.8 N | 0 64.4 63.7
5/2/26 - 0110 64.2 25.6 23 9.3 N | 351 10.4 NNW | 346 64.4 64.0
5/2/26 - 0100 64.5 24.9 22 9.6 NNW | 346 10.8 NNW | 344 70.2 53.7
5/2/26 - 0050 64.6 24.7 22 10.1 NNW | 343 11.7 NNW | 340 70.2 53.7
5/2/26 - 0040 64.4 25.2 22 8.8 N | 351 10.4 NNW | 342 70.2 53.7
5/2/26 - 0030 64.6 24.6 22 9.2 NNW | 344 10.7 NNW | 339 70.2 53.7
5/2/26 - 0020 64.6 24.8 22 9.2 NNW | 346 11.0 NNW | 348 70.2 53.7
5/2/26 - 0010 64.5 24.8 22 9.7 N | 349 11.8 NNW | 336 70.2 53.7
5/2/26 - 0000 64.4 25.3 23 9.0 N | 355 11.7 N | 351 70.2 53.7
5/1/26 - 2350 64.8 24.3 21 9.9 NNW | 347 11.4 NNW | 344 70.2 53.7
5/1/26 - 2340 64.9 24.0 21 10.8 N | 349 12.1 NNW | 343 70.2 53.7
5/1/26 - 2330 63.8 25.6 23 8.9 N | 359 10.6 N | 1 70.2 53.7
5/1/26 - 2320 64.0 25.4 23 9.5 N | 356 10.5 NNW | 348 70.2 53.7
5/1/26 - 2310 63.4 25.9 24 10.8 N | 351 11.8 N | 352 70.2 53.7
5/1/26 - 2300 62.8 28.6 27 11.1 N | 355 11.9 N | 354 70.2 53.7
5/1/26 - 2250 62.7 29.2 28 10.8 N | 353 11.6 N | 354 70.2 53.7
5/1/26 - 2240 62.6 30.1 29 11.8 N | 353 12.6 N | 354 70.2 53.7
5/1/26 - 2230 61.9 36.2 39 11.8 N | 1 12.6 N | 0 70.2 53.7
5/1/26 - 2220 61.5 41.2 47 10.8 N | 7 11.8 N | 5 70.2 53.7
5/1/26 - 2210 61.1 44.9 55 10.6 NNE | 17 11.4 NNE | 15 70.2 53.7
5/1/26 - 2200 61.2 45.7 57 9.4 NNE | 13 10.4 NNE | 15 70.2 53.7
5/1/26 - 2150 60.7 45.8 58 8.2 N | 11 9.5 NNE | 12 70.2 53.7
5/1/26 - 2140 60.8 45.9 58 8.8 N | 6 9.4 N | 354 70.2 53.7
5/1/26 - 2130 60.3 46.0 59 9.4 N | 2 10.2 N | 5 70.2 53.7
5/1/26 - 2120 60.0 47.4 63 9.6 N | 358 10.2 N | 1 70.2 53.7
5/1/26 - 2110 60.0 47.3 63 9.8 N | 0 11.2 N | 354 70.2 53.7
5/1/26 - 2100 60.8 45.1 56 12.2 N | 351 14.0 NNW | 348 70.2 53.7
5/1/26 - 2050 61.3 43.3 51 13.1 NNW | 346 14.4 NNW | 342 70.2 53.7
5/1/26 - 2040 62.3 39.5 43 13.6 NNW | 339 15.0 NNW | 344 70.2 53.7
5/1/26 - 2030 62.8 36.0 37 13.5 NW | 326 15.4 NW | 326 70.2 53.7
5/1/26 - 2020 63.2 32.4 31 14.2 NNW | 327 15.9 NNW | 328 70.2 53.7
5/1/26 - 2010 63.5 31.2 30 14.7 NNW | 330 18.5 NNW | 331 70.2 53.7
5/1/26 - 2000 63.2 33.0 32 14.6 NNW | 330 17.2 NNW | 334 70.2 53.7
5/1/26 - 1950 63.3 36.4 37 16.0 NNW | 331 18.0 NNW | 329 70.2 53.7
5/1/26 - 1940 62.6 43.6 50 15.3 NW | 326 18.3 NNW | 328 70.2 53.7
5/1/26 - 1930 62.6 46.7 56 13.9 NW | 323 16.8 NW | 322 70.2 53.7
5/1/26 - 1920 62.8 47.5 57 13.9 NW | 320 16.5 NW | 326 70.2 53.7
5/1/26 - 1910 62.9 49.2 61 12.8 NW | 324 15.1 NW | 324 70.2 53.7
5/1/26 - 1900 63.3 49.2 60 12.5 NW | 322 15.3 NW | 320 70.2 53.7
5/1/26 - 1850 63.9 48.5 57 14.0 NW | 317 16.6 NW | 322 70.2 53.7
5/1/26 - 1840 64.5 47.8 55 12.0 NW | 318 17.2 NW | 315 70.2 53.7
5/1/26 - 1830 64.9 49.5 57 10.4 WNW | 299 14.3 WNW | 301 70.2 53.7
5/1/26 - 1820 65.2 50.3 58 12.1 WNW | 288 17.1 WNW | 286 70.2 53.7
5/1/26 - 1810 65.5 50.5 58 11.7 WNW | 294 16.6 WNW | 291 70.2 53.7
5/1/26 - 1800 65.9 51.2 59 11.4 WNW | 294 15.9 WNW | 294 70.2 53.7
5/1/26 - 1750 66.0 51.1 59 12.2 W | 276 18.6 WSW | 252 70.2 53.7
5/1/26 - 1740 66.4 51.6 59 14.6 W | 268 21.8 WSW | 246 70.2 53.7
5/1/26 - 1730 66.8 50.9 57 15.0 W | 265 23.7 W | 267 70.2 53.7
5/1/26 - 1720 67.6 50.0 53 14.1 W | 267 22.5 W | 273 70.2 53.7
5/1/26 - 1710 67.3 48.2 50 14.1 WNW | 289 20.0 WNW | 289 70.2 53.7
5/1/26 - 1700 67.9 44.8 43 16.7 W | 281 24.1 WNW | 288 70.2 53.7
5/1/26 - 1650 68.6 45.5 43 15.7 W | 270 23.1 WNW | 292 70.2 53.7
5/1/26 - 1640 68.2 44.3 42 14.7 W | 274 22.0 W | 279 70.2 53.7
5/1/26 - 1630 68.2 43.5 41 16.1 WNW | 291 21.9 W | 271 70.2 53.7
5/1/26 - 1620 68.6 41.4 37 13.4 WNW | 289 20.4 WNW | 286 70.2 53.7
5/1/26 - 1610 68.6 40.3 36 15.4 WNW | 287 21.3 W | 274 69.6 53.7
5/1/26 - 1600 68.6 39.9 35 17.1 WNW | 285 23.4 WNW | 282 69.6 53.7
5/1/26 - 1550 68.5 39.9 35 16.1 WNW | 287 23.1 WNW | 286 69.1 53.7
5/1/26 - 1540 68.3 41.2 37 16.2 WNW | 284 21.7 WNW | 288 69.0 53.7
5/1/26 - 1530 68.2 41.6 38 16.5 W | 281 23.8 W | 273 68.9 53.7
5/1/26 - 1520 67.9 41.5 38 14.6 W | 269 24.2 W | 262 68.7 53.7
5/1/26 - 1510 68.0 41.7 38 14.6 W | 277 20.6 WNW | 285 68.7 53.7
5/1/26 - 1500 68.0 40.8 37 14.4 W | 276 21.7 WNW | 288 68.7 53.7
5/1/26 - 1450 68.0 39.3 35 14.6 W | 278 19.6 W | 280 68.7 53.7
5/1/26 - 1440 67.7 40.0 36 13.3 WNW | 282 20.4 WNW | 300 68.7 53.7
5/1/26 - 1430 67.6 39.6 36 12.5 W | 278 18.1 WNW | 285 68.7 53.7
5/1/26 - 1420 67.8 40.6 37 11.8 W | 278 19.8 W | 263 68.7 53.7
5/1/26 - 1410 67.2 40.8 38 10.8 WNW | 282 16.8 W | 279 68.0 53.7
5/1/26 - 1400 67.0 41.7 40 11.9 WNW | 285 16.4 WNW | 290 68.0 53.7
5/1/26 - 1350 66.4 42.7 42 11.6 W | 279 17.9 WNW | 284 68.0 53.7
5/1/26 - 1340 66.3 43.3 43 11.6 W | 281 16.7 W | 279 68.0 53.7
5/1/26 - 1330 66.5 45.1 46 11.2 W | 281 16.0 W | 261 68.0 53.7
5/1/26 - 1320 66.5 45.5 47 12.2 W | 274 19.7 W | 269 68.0 53.7
5/1/26 - 1310 66.7 45.9 47 10.4 W | 271 15.0 W | 276 68.0 53.7
5/1/26 - 1300 66.8 44.6 45 10.0 WNW | 299 15.6 WNW | 301 67.7 53.7
5/1/26 - 1250 66.1 44.9 46 10.4 WNW | 296 14.8 WNW | 294 67.6 53.7
5/1/26 - 1240 66.0 45.0 47 8.8 WNW | 284 14.2 WNW | 293 67.6 53.7
5/1/26 - 1230 65.6 45.4 48 7.9 W | 280 12.8 W | 275 67.6 53.7
5/1/26 - 1220 66.4 45.1 46 6.8 WNW | 286 11.3 WNW | 291 67.6 53.7
5/1/26 - 1210 65.3 43.5 45 7.6 W | 281 12.1 NW | 304 67.6 53.7
5/1/26 - 1200 65.2 44.4 47 7.3 W | 274 11.6 NW | 304 67.6 53.7
5/1/26 - 1150 65.0 43.8 46 8.2 W | 264 11.2 W | 263 67.6 53.7
5/1/26 - 1140 65.4 42.1 43 8.8 W | 265 11.6 W | 269 67.6 53.7
5/1/26 - 1130 66.2 40.7 39 7.9 W | 274 13.4 WNW | 283 67.6 53.7
5/1/26 - 1120 66.3 40.3 39 6.2 W | 263 10.2 WNW | 287 67.6 53.7
5/1/26 - 1110 65.2 40.2 40 7.2 W | 279 11.2 W | 274 67.6 53.7
Max 70.6 51.6 63 17.1 - 24.2 - 71.6 64.0
Avg 65.0 35.3 35 10.4 - 13.9 - - -
Min 60.0 23.8 20 2.2 - 3.7 - 64.4 53.7